This is the latest recevied weather packets stored in our database for station/object W1HVD. If no packets are shown the sender has not sent any weather packets the latest 10 day(s).
| Time | Temp. | Humidity | Pressure | Rain* | Wind** | Luminosity | Snow |
|---|---|---|---|---|---|---|---|
| 1778229127 | 3.33° C | 80% | 1009 hPa | 0 mm | - | 0 W/m² | - |
| 1778228822 | 3.33° C | 82% | 1008.9 hPa | 0 mm | - | 0 W/m² | - |
| 1778228519 | 3.33° C | 82% | 1009 hPa | 0 mm | - | 0 W/m² | - |
| 1778228217 | 3.33° C | 80% | 1008.9 hPa | 0 mm | - | 0 W/m² | - |
| 1778227913 | 3.33° C | 79% | 1008.8 hPa | 0 mm | - | 0 W/m² | - |
| 1778227611 | 3.89° C | 79% | 1008.8 hPa | 0 mm | - | 0 W/m² | - |
| 1778227309 | 3.89° C | 80% | 1008.6 hPa | 0 mm | - | 0 W/m² | - |
| 1778227005 | 3.89° C | 78% | 1008.6 hPa | 0 mm | - | 0 W/m² | - |
| 1778226702 | 3.89° C | 77% | 1008.3 hPa | 0 mm | - | 0 W/m² | - |
| 1778226400 | 3.89° C | 76% | 1008.4 hPa | 0 mm | - | 0 W/m² | - |
| 1778226097 | 4.44° C | 76% | 1008.6 hPa | 0 mm | - | 0 W/m² | - |
| 1778225794 | 4.44° C | 75% | 1008.3 hPa | 0 mm | - | 0 W/m² | - |
| 1778225492 | 5° C | 74% | 1008 hPa | 0 mm | - | 0 W/m² | - |
| 1778225187 | 5° C | 73% | 1008.1 hPa | 0 mm | - | 0 W/m² | - |
| 1778224884 | 5° C | 73% | 1008 hPa | 0 mm | - | 0 W/m² | - |
| 1778224582 | 5° C | 73% | 1007.6 hPa | 0 mm | - | 0 W/m² | - |
| 1778224280 | 5° C | 72% | 1007.8 hPa | 0 mm | - | 0 W/m² | - |
| 1778223977 | 5.56° C | 70% | 1007.8 hPa | 0 mm | - | 0 W/m² | - |
| 1778223676 | 5.56° C | 70% | 1007.7 hPa | 0 mm | - | 0 W/m² | - |
| 1778223372 | 5.56° C | 69% | 1007.9 hPa | 0 mm | - | 0 W/m² | - |
| 1778223070 | 6.11° C | 70% | 1007.8 hPa | 0 mm | - | 0 W/m² | - |
| 1778222768 | 6.67° C | 70% | 1007.8 hPa | 0 mm | - | 0 W/m² | - |
| 1778222466 | 6.67° C | 66% | 1007.9 hPa | 0 mm | - | 0 W/m² | - |
| 1778222163 | 6.67° C | 63% | 1007.8 hPa | 0 mm | - | 0 W/m² | - |
| 1778221861 | 7.22° C | 70% | 1007.6 hPa | 0 mm | - | 0 W/m² | - |
* Rain latest hour (hover to see other rain measurements)
** Current wind speed in m/s (hover to see current wind gust speed)